| time (UTC) | temp C | wind direction | speed KPH | gust KPH | rain 1hr cm | rain 24hr cm | rain mn cm | humidity % | barometer mb |
| 20260507115300 | 3 | 177 | 3.2 | 4.8 | 0.00 | 0.00 | 0.00 | 72 | 979.8 |
| 20260507114800 | 3 | 184 | 3.2 | 4.8 | 0.00 | 0.00 | 0.00 | 71 | 979.7 |
| 20260507113739 | 3 | 151 | 4.8 | 6.4 | 0.00 | 0.00 | 0.00 | 72 | 979.7 |
| 20260507113239 | 3 | 142 | 3.2 | 4.8 | 0.00 | 0.00 | 0.00 | 72 | 979.6 |
| 20260507112739 | 3 | 150 | 1.6 | 3.2 | 0.00 | 0.00 | 0.00 | 73 | 979.6 |
| 20260507112238 | 3 | 191 | 3.2 | 4.8 | 0.00 | 0.00 | 0.00 | 72 | 979.6 |
| 20260507111217 | 3 | 193 | 3.2 | 4.8 | 0.00 | 0.00 | 0.00 | 72 | 979.5 |
| 20260507110717 | 2 | 175 | 4.8 | 6.4 | 0.00 | 0.00 | 0.00 | 72 | 979.5 |
| 20260507110217 | 2 | 177 | 3.2 | 4.8 | 0.00 | 0.00 | 0.00 | 72 | 979.5 |
| 20260507105716 | 2 | 183 | 4.8 | 6.4 | 0.00 | 0.00 | 0.00 | 73 | 979.5 |
| 20260507105216 | 1 | 186 | 4.8 | 6.4 | 0.00 | 0.00 | 0.00 | 74 | 979.4 |
| 20260507104716 | 1 | 203 | 3.2 | 3.2 | 0.00 | 0.00 | 0.00 | 75 | 979.5 |
| 20260507103655 | 1 | 190 | 3.2 | 4.8 | 0.00 | 0.00 | 0.00 | 77 | 979.5 |
| 20260507103155 | 1 | 215 | 1.6 | 3.2 | 0.00 | 0.00 | 0.00 | 77 | 979.5 |
| 20260507102133 | 1 | 214 | 1.6 | 3.2 | 0.00 | 0.00 | 0.00 | 76 | 979.5 |
| 20260507101633 | 1 | 171 | 1.6 | 3.2 | 0.00 | 0.00 | 0.00 | 75 | 979.5 |
| 20260507100612 | 2 | 249 | 3.2 | 4.8 | 0.00 | 0.00 | 0.00 | 74 | 979.4 |
| 20260507100112 | 2 | 141 | 4.8 | 6.4 | 0.00 | 0.00 | 0.00 | 74 | 979.4 |
| 20260507095051 | 2 | 225 | 1.6 | 3.2 | 0.00 | 0.00 | 0.00 | 74 | 979.4 |
| 20260507094550 | 2 | 190 | 1.6 | 4.8 | 0.00 | 0.00 | 0.00 | 74 | 979.4 |
| 20260507094050 | 2 | 0 | 0.0 | 0.0 | 0.00 | 0.00 | 0.00 | 74 | 979.4 |
| 20260507093550 | 2 | 140 | 1.6 | 1.6 | 0.00 | 0.00 | 0.00 | 75 | 979.4 |
| 20260507093049 | 2 | 188 | 1.6 | 3.2 | 0.00 | 0.00 | 0.00 | 75 | 979.5 |
| 20260507092549 | 2 | 183 | 1.6 | 4.8 | 0.00 | 0.00 | 0.00 | 75 | 979.5 |
| 20260507092048 | 2 | 216 | 3.2 | 4.8 | 0.00 | 0.00 | 0.00 | 75 | 979.5 |
| 20260507091548 | 2 | 216 | 3.2 | 3.2 | 0.00 | 0.00 | 0.00 | 74 | 979.5 |
| 20260507091048 | 2 | 211 | 1.6 | 3.2 | 0.00 | 0.00 | 0.00 | 75 | 979.5 |
| 20260507090548 | 2 | 0 | 0.0 | 0.0 | 0.00 | 0.00 | 0.00 | 74 | 979.6 |
| 20260507085527 | 2 | 154 | 1.6 | 1.6 | 0.00 | 0.00 | 0.00 | 73 | 979.7 |
| 20260507085027 | 3 | 197 | 3.2 | 4.8 | 0.00 | 0.00 | 0.00 | 73 | 979.8 |
| 20260507084526 | 3 | 164 | 1.6 | 3.2 | 0.00 | 0.00 | 0.00 | 73 | 979.7 |
| 20260507084026 | 3 | 0 | 0.0 | 0.0 | 0.00 | 0.00 | 0.00 | 73 | 979.7 |
| 20260507083005 | 3 | 42 | 1.6 | 3.2 | 0.00 | 0.00 | 0.00 | 73 | 979.8 |
| 20260507081944 | 3 | 0 | 0.0 | 0.0 | 0.00 | 0.00 | 0.00 | 73 | 979.6 |
| 20260507081444 | 3 | 120 | 0.0 | 1.6 | 0.00 | 0.00 | 0.00 | 73 | 979.6 |
| 20260507080943 | 3 | 154 | 1.6 | 3.2 | 0.00 | 0.00 | 0.00 | 74 | 979.6 |
| 20260507080443 | 3 | 115 | 1.6 | 4.8 | 0.00 | 0.00 | 0.00 | 75 | 979.8 |
| 20260507075943 | 3 | 231 | 1.6 | 1.6 | 0.00 | 0.00 | 0.00 | 75 | 979.7 |
| 20260507074400 | 4 | 0 | 0.0 | 0.0 | 0.00 | 0.00 | 0.00 | 73 | 979.7 |
| 20260507073900 | 5 | 0 | 0.0 | 0.0 | 0.00 | 0.00 | 0.00 | 73 | 979.7 |
| 20260507073400 | 5 | 0 | 0.0 | 0.0 | 0.00 | 0.00 | 0.00 | 73 | 979.7 |
| 20260507072859 | 5 | 0 | 0.0 | 0.0 | 0.00 | 0.00 | 0.00 | 72 | 979.7 |
| 20260507072359 | 5 | 286 | 1.6 | 3.2 | 0.00 | 0.00 | 0.00 | 72 | 979.7 |
| 20260507071859 | 5 | 0 | 0.0 | 0.0 | 0.00 | 0.00 | 0.00 | 71 | 979.7 |
| 20260507071358 | 5 | 333 | 3.2 | 6.4 | 0.00 | 0.00 | 0.00 | 71 | 979.8 |
| 20260507070858 | 5 | 325 | 3.2 | 4.8 | 0.00 | 0.00 | 0.00 | 71 | 979.7 |
| 20260507070358 | 5 | 330 | 3.2 | 3.2 | 0.00 | 0.00 | 0.00 | 71 | 979.7 |
| 20260507065858 | 5 | 0 | 0.0 | 0.0 | 0.00 | 0.00 | 0.00 | 71 | 979.8 |
| 20260507065358 | 5 | 338 | 3.2 | 4.8 | 0.00 | 0.00 | 0.00 | 70 | 979.8 |
| 20260507064856 | 5 | 335 | 3.2 | 4.8 | 0.00 | 0.00 | 0.00 | 70 | 979.8 |
| 20260507064356 | 5 | 342 | 3.2 | 6.4 | 0.00 | 0.00 | 0.00 | 70 | 979.7 |
| 20260507063855 | 5 | 352 | 4.8 | 8.0 | 0.00 | 0.00 | 0.00 | 70 | 979.7 |
| 20260507063355 | 5 | 0 | 0.0 | 0.0 | 0.00 | 0.00 | 0.00 | 70 | 979.7 |
| 20260507062855 | 5 | 342 | 4.8 | 8.0 | 0.00 | 0.00 | 0.00 | 69 | 979.7 |
| 20260507061834 | 5 | 343 | 3.2 | 4.8 | 0.00 | 0.00 | 0.00 | 70 | 979.5 |
| 20260507061334 | 6 | 288 | 3.2 | 3.2 | 0.00 | 0.00 | 0.00 | 70 | 979.5 |
| 20260507060833 | 6 | 270 | 3.2 | 3.2 | 0.00 | 0.00 | 0.00 | 70 | 979.5 |
| 20260507060333 | 6 | 256 | 3.2 | 4.8 | 0.00 | 0.00 | 0.00 | 69 | 979.4 |
| 20260507055311 | 6 | 248 | 4.8 | 8.0 | 0.00 | 0.00 | 0.00 | 69 | 979.4 |
| 20260507054811 | 5 | 262 | 8.0 | 11.3 | 0.00 | 0.00 | 0.00 | 70 | 979.5 |
| 20260507054311 | 5 | 260 | 3.2 | 6.4 | 0.00 | 0.00 | 0.00 | 70 | 979.6 |
| 20260507053811 | 5 | 234 | 1.6 | 4.8 | 0.00 | 0.00 | 0.00 | 70 | 979.6 |
| 20260507053311 | 6 | 245 | 4.8 | 9.7 | 0.00 | 0.00 | 0.00 | 69 | 979.6 |
| 20260507052811 | 5 | 241 | 1.6 | 3.2 | 0.00 | 0.00 | 0.00 | 69 | 979.7 |
| 20260507052310 | 5 | 236 | 4.8 | 8.0 | 0.00 | 0.00 | 0.00 | 69 | 979.8 |
| 20260507051810 | 5 | 191 | 3.2 | 6.4 | 0.00 | 0.00 | 0.00 | 69 | 979.8 |
| 20260507050750 | 5 | 254 | 3.2 | 4.8 | 0.00 | 0.00 | 0.00 | 67 | 979.9 |
| 20260507050248 | 5 | 209 | 1.6 | 4.8 | 0.00 | 0.00 | 0.00 | 67 | 979.9 |
| 20260507045748 | 5 | 231 | 4.8 | 9.7 | 0.00 | 0.00 | 0.00 | 66 | 979.9 |
| 20260507045249 | 6 | 194 | 1.6 | 1.6 | 0.00 | 0.00 | 0.00 | 66 | 979.9 |
| 20260507044748 | 6 | 240 | 3.2 | 8.0 | 0.00 | 0.00 | 0.00 | 65 | 980.0 |
| 20260507044248 | 6 | 213 | 1.6 | 3.2 | 0.00 | 0.00 | 0.00 | 64 | 980.0 |
| 20260507043747 | 6 | 246 | 4.8 | 8.0 | 0.00 | 0.00 | 0.00 | 63 | 980.0 |
| 20260507043247 | 6 | 215 | 3.2 | 3.2 | 0.00 | 0.00 | 0.00 | 62 | 980.1 |
| 20260507042225 | 5 | 237 | 3.2 | 3.2 | 0.00 | 0.00 | 0.00 | 63 | 980.1 |
| 20260507041724 | 5 | 228 | 3.2 | 4.8 | 0.00 | 0.00 | 0.00 | 64 | 980.2 |
| 20260507041224 | 5 | 201 | 1.6 | 3.2 | 0.00 | 0.00 | 0.00 | 66 | 980.1 |
| 20260507040202 | 5 | 208 | 1.6 | 3.2 | 0.00 | 0.00 | 0.00 | 65 | 980.1 |
| 20260507035702 | 5 | 233 | 1.6 | 4.8 | 0.00 | 0.00 | 0.00 | 65 | 980.1 |
| 20260507035201 | 5 | 0 | 0.0 | 0.0 | 0.00 | 0.00 | 0.00 | 67 | 980.2 |
| 20260507034701 | 5 | 221 | 1.6 | 3.2 | 0.00 | 0.00 | 0.00 | 68 | 980.2 |
| 20260507033639 | 5 | 0 | 0.0 | 0.0 | 0.00 | 0.00 | 0.00 | 66 | 980.1 |
| 20260507033139 | 5 | 220 | 1.6 | 3.2 | 0.00 | 0.00 | 0.00 | 65 | 980.2 |
| 20260507032116 | 5 | 0 | 0.0 | 0.0 | 0.00 | 0.00 | 0.00 | 68 | 980.2 |
| 20260507031615 | 5 | 0 | 0.0 | 0.0 | 0.00 | 0.00 | 0.00 | 67 | 980.3 |
| 20260507031115 | 5 | 0 | 0.0 | 0.0 | 0.00 | 0.00 | 0.00 | 68 | 980.3 |
| 20260507030054 | 5 | 0 | 0.0 | 0.0 | 0.00 | 0.00 | 0.00 | 67 | 980.4 |
| 20260507025554 | 5 | 0 | 0.0 | 0.0 | 0.00 | 0.00 | 0.00 | 67 | 980.3 |
| 20260507025053 | 5 | 0 | 0.0 | 0.0 | 0.00 | 0.00 | 0.00 | 67 | 980.3 |
| 20260507024030 | 5 | 0 | 0.0 | 0.0 | 0.00 | 0.00 | 0.00 | 65 | 980.2 |
| 20260507023530 | 5 | 193 | 1.6 | 3.2 | 0.00 | 0.00 | 0.00 | 64 | 980.2 |
| 20260507022507 | 5 | 0 | 0.0 | 0.0 | 0.00 | 0.00 | 0.00 | 65 | 980.3 |
| 20260507021445 | 5 | 0 | 0.0 | 0.0 | 0.00 | 0.00 | 0.00 | 66 | 980.3 |
| 20260507020945 | 5 | 0 | 0.0 | 0.0 | 0.00 | 0.00 | 0.00 | 63 | 980.2 |
| 20260507015402 | 5 | 0 | 0.0 | 0.0 | 0.00 | 0.00 | 0.00 | 64 | 980.3 |
| 20260507014902 | 5 | 0 | 0.0 | 0.0 | 0.00 | 0.00 | 0.00 | 63 | 980.2 |
| 20260507013840 | 5 | 0 | 0.0 | 0.0 | 0.00 | 0.00 | 0.00 | 59 | 980.2 |
| 20260507012819 | 5 | 215 | 0.0 | 1.6 | 0.00 | 0.00 | 0.00 | 60 | 980.2 |
| 20260507012319 | 6 | 0 | 0.0 | 0.0 | 0.00 | 0.00 | 0.00 | 59 | 980.2 |
| 20260507011818 | 6 | 0 | 0.0 | 0.0 | 0.00 | 0.00 | 0.00 | 60 | 980.2 |
| 20260507011317 | 6 | 0 | 0.0 | 0.0 | 0.00 | 0.00 | 0.00 | 59 | 980.3 |
| 20260507010256 | 6 | 255 | 1.6 | 3.2 | 0.00 | 0.00 | 0.00 | 55 | 980.4 |
| 20260507005756 | 6 | 229 | 1.6 | 3.2 | 0.00 | 0.00 | 0.00 | 53 | 980.3 |
| 20260507005256 | 6 | 219 | 3.2 | 3.2 | 0.00 | 0.00 | 0.00 | 52 | 980.3 |
| 20260507004755 | 6 | 238 | 1.6 | 3.2 | 0.00 | 0.00 | 0.00 | 51 | 980.2 |
| 20260507004255 | 7 | 246 | 3.2 | 3.2 | 0.00 | 0.00 | 0.00 | 50 | 980.3 |
| 20260507003755 | 7 | 269 | 1.6 | 3.2 | 0.00 | 0.00 | 0.00 | 50 | 980.2 |
| 20260507003254 | 7 | 262 | 3.2 | 3.2 | 0.00 | 0.00 | 0.00 | 49 | 980.1 |
| 20260507002754 | 7 | 258 | 1.6 | 3.2 | 0.00 | 0.00 | 0.00 | 48 | 980.1 |
| 20260507002254 | 7 | 275 | 1.6 | 1.6 | 0.00 | 0.00 | 0.00 | 47 | 980.0 |
| 20260507001754 | 7 | 310 | 3.2 | 4.8 | 0.00 | 0.00 | 0.00 | 47 | 980.0 |
| 20260507001254 | 7 | 302 | 3.2 | 4.8 | 0.00 | 0.00 | 0.00 | 45 | 979.9 |
| 20260507000754 | 8 | 325 | 3.2 | 4.8 | 0.00 | 0.00 | 0.00 | 44 | 979.8 |
| 20260507000253 | 8 | 332 | 6.4 | 8.0 | 0.00 | 0.00 | 0.00 | 43 | 979.7 |
| 20260506235231 | 8 | 338 | 4.8 | 8.0 | 0.00 | 0.00 | 0.00 | 43 | 979.7 |
| 20260506233649 | 8 | 326 | 6.4 | 9.7 | 0.00 | 0.00 | 0.00 | 42 | 979.8 |
| 20260506233148 | 8 | 334 | 4.8 | 8.0 | 0.00 | 0.00 | 0.00 | 42 | 979.8 |
| 20260506232647 | 8 | 333 | 9.7 | 11.3 | 0.00 | 0.00 | 0.00 | 41 | 979.7 |
| 20260506231626 | 8 | 10 | 6.4 | 14.5 | 0.00 | 0.00 | 0.00 | 41 | 979.8 |
| 20260506225522 | 9 | 332 | 11.3 | 14.5 | 0.00 | 0.00 | 0.00 | 40 | 979.8 |
| 20260506225021 | 9 | 352 | 11.3 | 12.9 | 0.00 | 0.00 | 0.00 | 38 | 979.8 |
| 20260506224521 | 9 | 317 | 6.4 | 12.9 | 0.00 | 0.00 | 0.00 | 40 | 979.9 |
| 20260506224021 | 8 | 340 | 8.0 | 11.3 | 0.00 | 0.00 | 0.00 | 40 | 979.9 |
| 20260506223520 | 8 | 317 | 8.0 | 12.9 | 0.00 | 0.00 | 0.00 | 40 | 979.9 |
| 20260506222459 | 8 | 352 | 8.0 | 11.3 | 0.00 | 0.00 | 0.00 | 40 | 979.9 |
| 20260506221959 | 8 | 332 | 4.8 | 9.7 | 0.00 | 0.00 | 0.00 | 41 | 979.9 |
| 20260506221458 | 8 | 340 | 12.9 | 16.1 | 0.00 | 0.00 | 0.00 | 40 | 979.9 |
| 20260506220958 | 8 | 336 | 11.3 | 20.9 | 0.00 | 0.00 | 0.00 | 40 | 979.8 |
| 20260506220458 | 9 | 337 | 11.3 | 12.9 | 0.00 | 0.00 | 0.00 | 38 | 979.8 |
| 20260506215958 | 9 | 309 | 11.3 | 14.5 | 0.00 | 0.00 | 0.00 | 38 | 979.8 |
| 20260506215457 | 9 | 352 | 6.4 | 12.9 | 0.00 | 0.00 | 0.00 | 39 | 979.7 |
| 20260506214957 | 8 | 345 | 11.3 | 17.7 | 0.00 | 0.00 | 0.00 | 38 | 979.6 |
| 20260506214457 | 8 | 3 | 6.4 | 12.9 | 0.00 | 0.00 | 0.00 | 39 | 979.5 |
| 20260506213957 | 9 | 331 | 6.4 | 11.3 | 0.00 | 0.00 | 0.00 | 38 | 979.5 |
| 20260506212935 | 8 | 331 | 8.0 | 14.5 | 0.00 | 0.00 | 0.00 | 38 | 979.5 |
| 20260506212435 | 9 | 339 | 11.3 | 17.7 | 0.00 | 0.00 | 0.00 | 37 | 979.5 |
| 20260506211414 | 8 | 9 | 8.0 | 14.5 | 0.00 | 0.00 | 0.00 | 40 | 979.5 |
| 20260506210913 | 8 | 350 | 9.7 | 17.7 | 0.00 | 0.00 | 0.00 | 40 | 979.5 |
| 20260506210412 | 8 | 11 | 8.0 | 14.5 | 0.00 | 0.00 | 0.00 | 43 | 979.3 |
| 20260506205912 | 8 | 359 | 9.7 | 12.9 | 0.00 | 0.00 | 0.00 | 43 | 979.3 |
| 20260506204850 | 8 | 340 | 9.7 | 14.5 | 0.00 | 0.00 | 0.00 | 43 | 979.2 |
| 20260506204350 | 8 | 349 | 14.5 | 19.3 | 0.00 | 0.00 | 0.00 | 43 | 979.2 |
| 20260506203849 | 8 | 341 | 12.9 | 16.1 | 0.00 | 0.00 | 0.00 | 45 | 979.2 |
| 20260506203349 | 8 | 338 | 12.9 | 19.3 | 0.00 | 0.00 | 0.00 | 46 | 979.2 |
| 20260506202849 | 8 | 341 | 11.3 | 17.7 | 0.00 | 0.00 | 0.00 | 47 | 979.3 |
| 20260506202348 | 8 | 323 | 11.3 | 14.5 | 0.00 | 0.00 | 0.00 | 47 | 979.3 |
| 20260506201326 | 8 | 334 | 11.3 | 14.5 | 0.00 | 0.00 | 0.00 | 48 | 979.3 |
| 20260506200826 | 8 | 350 | 8.0 | 14.5 | 0.00 | 0.00 | 0.00 | 49 | 979.3 |
| 20260506195805 | 8 | 347 | 12.9 | 16.1 | 0.00 | 0.00 | 0.00 | 48 | 979.3 |
| 20260506195306 | 8 | 348 | 8.0 | 14.5 | 0.00 | 0.00 | 0.00 | 49 | 979.3 |
| 20260506194804 | 8 | 351 | 8.0 | 12.9 | 0.00 | 0.00 | 0.00 | 49 | 979.2 |
| 20260506194304 | 8 | 336 | 6.4 | 9.7 | 0.00 | 0.00 | 0.00 | 49 | 979.2 |
| 20260506193803 | 8 | 2 | 8.0 | 14.5 | 0.00 | 0.00 | 0.00 | 50 | 979.2 |
| 20260506193303 | 8 | 317 | 14.5 | 22.5 | 0.00 | 0.00 | 0.00 | 48 | 979.1 |
| 20260506192803 | 8 | 341 | 16.1 | 20.9 | 0.00 | 0.00 | 0.00 | 47 | 979.2 |
| 20260506192305 | 8 | 353 | 9.7 | 12.9 | 0.00 | 0.00 | 0.00 | 49 | 979.1 |
| 20260506191803 | 8 | 343 | 12.9 | 17.7 | 0.00 | 0.00 | 0.00 | 49 | 979.1 |
| 20260506191302 | 8 | 348 | 11.3 | 16.1 | 0.00 | 0.00 | 0.00 | 50 | 979.1 |
| 20260506190801 | 8 | 355 | 9.7 | 14.5 | 0.00 | 0.00 | 0.00 | 50 | 979.3 |
| 20260506190300 | 8 | 338 | 14.5 | 17.7 | 0.00 | 0.00 | 0.00 | 49 | 979.3 |
| 20260506185800 | 8 | 333 | 12.9 | 19.3 | 0.00 | 0.00 | 0.00 | 50 | 979.2 |
| 20260506185300 | 8 | 345 | 11.3 | 19.3 | 0.00 | 0.00 | 0.00 | 50 | 979.3 |
| 20260506184800 | 8 | 347 | 14.5 | 19.3 | 0.00 | 0.00 | 0.00 | 50 | 979.3 |
| 20260506184259 | 8 | 340 | 12.9 | 19.3 | 0.00 | 0.00 | 0.00 | 50 | 979.2 |
| 20260506183759 | 8 | 343 | 14.5 | 24.1 | 0.00 | 0.00 | 0.00 | 51 | 979.0 |
| 20260506183259 | 8 | 334 | 12.9 | 17.7 | 0.00 | 0.00 | 0.00 | 51 | 979.0 |
| 20260506182759 | 8 | 322 | 11.3 | 14.5 | 0.00 | 0.00 | 0.00 | 51 | 978.9 |
| 20260506182258 | 8 | 323 | 14.5 | 19.3 | 0.00 | 0.00 | 0.00 | 50 | 978.8 |
| 20260506181757 | 9 | 333 | 11.3 | 20.9 | 0.00 | 0.00 | 0.00 | 50 | 978.6 |
| 20260506181257 | 9 | 333 | 12.9 | 19.3 | 0.00 | 0.00 | 0.00 | 49 | 978.6 |
| 20260506180757 | 9 | 8 | 6.4 | 14.5 | 0.00 | 0.00 | 0.00 | 49 | 978.5 |
| 20260506180256 | 9 | 336 | 12.9 | 16.1 | 0.00 | 0.00 | 0.00 | 49 | 978.4 |
| 20260506175755 | 9 | 338 | 9.7 | 19.3 | 0.00 | 0.00 | 0.00 | 50 | 978.4 |
| 20260506175255 | 9 | 340 | 8.0 | 12.9 | 0.00 | 0.00 | 0.00 | 49 | 978.3 |
| 20260506174755 | 9 | 6 | 9.7 | 19.3 | 0.00 | 0.00 | 0.00 | 50 | 978.4 |
| 20260506174255 | 10 | 0 | 12.9 | 19.3 | 0.00 | 0.00 | 0.00 | 51 | 978.5 |
| 20260506172712 | 10 | 16 | 11.3 | 17.7 | 0.00 | 0.00 | 0.00 | 49 | 978.4 |
| 20260506172212 | 10 | 343 | 9.7 | 14.5 | 0.00 | 0.00 | 0.00 | 52 | 978.3 |
| 20260506171151 | 10 | 353 | 9.7 | 14.5 | 0.00 | 0.00 | 0.00 | 51 | 978.4 |
| 20260506170650 | 10 | 344 | 14.5 | 19.3 | 0.00 | 0.00 | 0.00 | 52 | 978.2 |
| 20260506170150 | 10 | 337 | 9.7 | 17.7 | 0.00 | 0.00 | 0.00 | 53 | 978.3 |
| 20260506165129 | 10 | 346 | 12.9 | 20.9 | 0.00 | 0.00 | 0.00 | 52 | 978.5 |
| 20260506164628 | 10 | 351 | 8.0 | 12.9 | 0.00 | 0.00 | 0.00 | 55 | 978.4 |
| 20260506164128 | 10 | 339 | 12.9 | 17.7 | 0.00 | 0.00 | 0.00 | 56 | 978.6 |
| 20260506163627 | 10 | 346 | 12.9 | 19.3 | 0.00 | 0.00 | 0.00 | 56 | 978.6 |
| 20260506163127 | 9 | 18 | 11.3 | 19.3 | 0.00 | 0.00 | 0.00 | 57 | 978.6 |
| 20260506162627 | 9 | 339 | 17.7 | 24.1 | 0.00 | 0.00 | 0.00 | 57 | 978.3 |
| 20260506162126 | 9 | 342 | 14.5 | 19.3 | 0.00 | 0.00 | 0.00 | 57 | 978.3 |
| 20260506161626 | 9 | 338 | 12.9 | 20.9 | 0.00 | 0.00 | 0.00 | 60 | 978.3 |
| 20260506160605 | 9 | 353 | 9.7 | 14.5 | 0.00 | 0.00 | 0.00 | 61 | 978.4 |
| 20260506160104 | 9 | 12 | 11.3 | 17.7 | 0.00 | 0.00 | 0.00 | 62 | 978.2 |
| 20260506155043 | 9 | 335 | 12.9 | 17.7 | 0.00 | 0.00 | 0.00 | 64 | 978.2 |
| 20260506154543 | 9 | 333 | 9.7 | 17.7 | 0.00 | 0.00 | 0.00 | 65 | 978.2 |
| 20260506154042 | 9 | 347 | 8.0 | 16.1 | 0.00 | 0.00 | 0.00 | 66 | 978.3 |
| 20260506153542 | 9 | 9 | 8.0 | 11.3 | 0.00 | 0.00 | 0.00 | 67 | 978.2 |
| 20260506153041 | 9 | 347 | 14.5 | 20.9 | 0.00 | 0.00 | 0.00 | 66 | 978.1 |
| 20260506152540 | 9 | 11 | 6.4 | 14.5 | 0.00 | 0.00 | 0.00 | 68 | 978.1 |
| 20260506152040 | 8 | 0 | 11.3 | 16.1 | 0.00 | 0.00 | 0.00 | 71 | 978.1 |
| 20260506151540 | 8 | 326 | 14.5 | 19.3 | 0.00 | 0.00 | 0.00 | 71 | 978.2 |
| 20260506151040 | 8 | 300 | 12.9 | 17.7 | 0.00 | 0.00 | 0.00 | 72 | 978.0 |
| 20260506150539 | 8 | 332 | 9.7 | 14.5 | 0.00 | 0.00 | 0.00 | 73 | 978.0 |
| 20260506145518 | 8 | 341 | 9.7 | 16.1 | 0.00 | 0.00 | 0.00 | 73 | 977.7 |
| 20260506145018 | 8 | 345 | 9.7 | 12.9 | 0.00 | 0.00 | 0.00 | 72 | 977.6 |
| 20260506143956 | 8 | 340 | 14.5 | 19.3 | 0.00 | 0.00 | 0.00 | 73 | 977.6 |
| 20260506143456 | 8 | 331 | 11.3 | 14.5 | 0.00 | 0.00 | 0.00 | 74 | 977.4 |
| 20260506142435 | 8 | 345 | 9.7 | 12.9 | 0.00 | 0.00 | 0.00 | 77 | 977.3 |
| 20260506141934 | 7 | 310 | 6.4 | 9.7 | 0.00 | 0.00 | 0.00 | 79 | 977.3 |
| 20260506141434 | 7 | 315 | 8.0 | 11.3 | 0.00 | 0.00 | 0.00 | 81 | 977.2 |
| 20260506140934 | 7 | 337 | 8.0 | 9.7 | 0.00 | 0.00 | 0.00 | 82 | 977.1 |
| 20260506140434 | 7 | 331 | 6.4 | 11.3 | 0.00 | 0.00 | 0.00 | 82 | 976.9 |
| 20260506135933 | 6 | 325 | 6.4 | 12.9 | 0.00 | 0.00 | 0.00 | 83 | 977.0 |
| 20260506134912 | 6 | 349 | 8.0 | 14.5 | 0.00 | 0.00 | 0.00 | 84 | 977.0 |
| 20260506134412 | 6 | 354 | 4.8 | 8.0 | 0.00 | 0.00 | 0.00 | 84 | 977.1 |
| 20260506133351 | 6 | 302 | 3.2 | 4.8 | 0.00 | 0.00 | 0.00 | 85 | 977.1 |
| 20260506132850 | 6 | 294 | 6.4 | 9.7 | 0.00 | 0.00 | 0.00 | 85 | 977.1 |
| 20260506132350 | 6 | 333 | 4.8 | 8.0 | 0.00 | 0.00 | 0.00 | 85 | 977.1 |
| 20260506131850 | 6 | 318 | 9.7 | 14.5 | 0.00 | 0.00 | 0.00 | 85 | 977.1 |
| 20260506131350 | 6 | 308 | 6.4 | 9.7 | 0.00 | 0.00 | 0.00 | 85 | 977.1 |
| 20260506130849 | 6 | 296 | 3.2 | 4.8 | 0.00 | 0.00 | 0.00 | 86 | 977.0 |
| 20260506130348 | 5 | 323 | 6.4 | 12.9 | 0.00 | 0.00 | 0.00 | 85 | 976.8 |
| 20260506125848 | 5 | 305 | 8.0 | 11.3 | 0.00 | 0.00 | 0.00 | 85 | 976.8 |
| 20260506125348 | 5 | 311 | 8.0 | 12.9 | 0.00 | 0.00 | 0.00 | 85 | 976.7 |
| 20260506124326 | 5 | 304 | 4.8 | 8.0 | 0.00 | 0.00 | 0.00 | 86 | 976.6 |
| 20260506123826 | 5 | 291 | 4.8 | 4.8 | 0.00 | 0.00 | 0.00 | 86 | 976.5 |
| 20260506123326 | 6 | 317 | 8.0 | 12.9 | 0.00 | 0.00 | 0.00 | 86 | 976.6 |
| 20260506122826 | 6 | 309 | 8.0 | 9.7 | 0.00 | 0.00 | 0.00 | 86 | 976.6 |
| 20260506122326 | 6 | 305 | 6.4 | 8.0 | 0.00 | 0.00 | 0.00 | 86 | 976.6 |
| 20260506121825 | 6 | 331 | 8.0 | 11.3 | 0.00 | 0.00 | 0.00 | 86 | 976.6 |
| 20260506120804 | 7 | 283 | 6.4 | 9.7 | 0.00 | 0.00 | 0.00 | 86 | 976.5 |
| 20260506120303 | 7 | 298 | 6.4 | 9.7 | 0.00 | 0.00 | 0.00 | 86 | 976.5 |
| 20260506115803 | 7 | 269 | 6.4 | 8.0 | 0.00 | 0.00 | 0.00 | 87 | 976.3 |